EN

Hourly Weather Alsbach-Hahnlein

Today, 22 January, Friday

Time Temperature Precipitation Wind Pressure Humidity
00:00 +8°C° 0.2 mm 6 mps 736 mmHg 81%
01:00 +8°C° 0.2 mm 6 mps 736 mmHg 80%
02:00 +8°C° 0.1 mm 6 mps 736 mmHg 79%
03:00 +8°C° 0.1 mm 7 mps 735 mmHg 79%
04:00 +8°C° 0.1 mm 7 mps 735 mmHg 79%
05:00 +8°C° 0.1 mm 7 mps 735 mmHg 79%
06:00 +8°C° 0.1 mm 7 mps 735 mmHg 78%
07:00 +8°C° 0.1 mm 7 mps 734 mmHg 78%
08:00 +7°C° 0.4 mm 6 mps 735 mmHg 80%
09:00 +7°C° 0.4 mm 5 mps 735 mmHg 82%
10:00 +7°C° 0.4 mm 5 mps 735 mmHg 85%
11:00 +6°C° 0.4 mm 4 mps 735 mmHg 84%
12:00 +7°C° 0.4 mm 3 mps 736 mmHg 83%
13:00 +8°C° 0.4 mm 1 mps 736 mmHg 82%
14:00 +7°C° 0.2 mm 1 mps 736 mmHg 82%
15:00 +7°C° 0.2 mm 1 mps 735 mmHg 81%
16:00 +7°C° 0.2 mm 1 mps 735 mmHg 80%
17:00 +7°C° 0 mm 1 mps 736 mmHg 81%
18:00 +7°C° 0 mm 1 mps 736 mmHg 82%
19:00 +6°C° 0 mm 1 mps 736 mmHg 82%
20:00 +6°C° 0.7 mm 1 mps 736 mmHg 84%
21:00 +5°C° 0.7 mm 2 mps 736 mmHg 87%
22:00 +3°C° 0.7 mm 3 mps 737 mmHg 89%
23:00 +3°C° 0.7 mm 3 mps 737 mmHg 89%

Tomorrow, 23 January, Saturday

Time Temperature Precipitation Wind Pressure Humidity
00:00 +3°C° 0.7 mm 3 mps 737 mmHg 90%
01:00 +2°C° 0.7 mm 3 mps 738 mmHg 91%
02:00 +3°C° 0.1 mm 2 mps 738 mmHg 90%
03:00 +3°C° 0.1 mm 2 mps 738 mmHg 89%
04:00 +4°C° 0.1 mm 1 mps 738 mmHg 88%
05:00 +4°C° 0 mm 1 mps 738 mmHg 89%
06:00 +4°C° 0 mm 1 mps 739 mmHg 89%
07:00 +4°C° 0 mm 1 mps 739 mmHg 90%
08:00 +4°C° 0 mm 1 mps 739 mmHg 89%
09:00 +3°C° 0 mm 2 mps 739 mmHg 88%
10:00 +3°C° 0 mm 2 mps 739 mmHg 87%
11:00 +4°C° 0 mm 2 mps 739 mmHg 85%
12:00 +4°C° 0 mm 2 mps 739 mmHg 82%
13:00 +5°C° 0 mm 2 mps 738 mmHg 79%
14:00 +5°C° 0.1 mm 2 mps 738 mmHg 79%
15:00 +6°C° 0.1 mm 1 mps 738 mmHg 78%
16:00 +6°C° 0.1 mm 1 mps 738 mmHg 78%
17:00 +5°C° 0 mm 1 mps 738 mmHg 80%
18:00 +5°C° 0 mm 1 mps 738 mmHg 82%
19:00 +4°C° 0 mm 1 mps 738 mmHg 84%
20:00 +4°C° 0 mm 1 mps 738 mmHg 84%
21:00 +4°C° 0 mm 1 mps 738 mmHg 84%
22:00 +2°C° 0 mm 0 mps 738 mmHg 84%
23:00 +2°C° 0 mm 0 mps 738 mmHg 85%

Day after tomorrow, 24 January, Sunday

Time Temperature Precipitation Wind Pressure Humidity
00:00 +3°C° 0 mm 1 mps 738 mmHg 85%
01:00 +3°C° 0 mm 1 mps 738 mmHg 86%
02:00 +3°C° 0.6 mm 1 mps 738 mmHg 89%
03:00 +2°C° 0.6 mm 2 mps 738 mmHg 92%
04:00 +1°C° 0.6 mm 2 mps 738 mmHg 94%
05:00 +1°C° 0.9 mm 2 mps 739 mmHg 94%
06:00 0°C° 0.9 mm 3 mps 739 mmHg 93%
07:00 0°C° 0.9 mm 3 mps 740 mmHg 93%
08:00 0°C° 0.1 mm 3 mps 740 mmHg 88%
09:00 -1°C° 0.1 mm 4 mps 741 mmHg 84%
10:00 0°C° 0.1 mm 4 mps 741 mmHg 79%
11:00 0°C° 0 mm 4 mps 741 mmHg 76%
12:00 0°C° 0 mm 4 mps 741 mmHg 73%
13:00 +2°C° 0 mm 3 mps 741 mmHg 70%
14:00 +1°C° 0 mm 3 mps 741 mmHg 71%
15:00 +1°C° 0 mm 3 mps 741 mmHg 72%
16:00 +2°C° 0 mm 2 mps 741 mmHg 73%
17:00 +2°C° 0 mm 2 mps 741 mmHg 75%
18:00 +2°C° 0 mm 1 mps 741 mmHg 77%
19:00 +2°C° 0 mm 1 mps 742 mmHg 78%
20:00 +2°C° 0 mm 1 mps 742 mmHg 78%
21:00 +2°C° 0 mm 1 mps 741 mmHg 79%
22:00 +2°C° 0 mm 1 mps 741 mmHg 79%
23:00 +1°C° 0 mm 1 mps 741 mmHg 80%

25 January, Monday

Time Temperature Precipitation Wind Pressure Humidity
00:00 0°C° 0 mm 0 mps 742 mmHg 82%
01:00 0°C° 0 mm 0 mps 742 mmHg 83%
02:00 0°C° 0.2 mm 0 mps 742 mmHg 84%
03:00 0°C° 0.2 mm 0 mps 742 mmHg 85%
04:00 0°C° 0.2 mm 0 mps 743 mmHg 86%
05:00 -1°C° 0.1 mm 0 mps 744 mmHg 87%
06:00 -1°C° 0.1 mm 0 mps 744 mmHg 87%
07:00 -1°C° 0.1 mm 0 mps 745 mmHg 87%
08:00 0°C° 0 mm 0 mps 746 mmHg 87%
09:00 +1°C° 0 mm 1 mps 746 mmHg 86%
10:00 +1°C° 0 mm 1 mps 747 mmHg 86%
11:00 +1°C° 0 mm 2 mps 747 mmHg 86%
12:00 +1°C° 0 mm 2 mps 747 mmHg 86%
13:00 +1°C° 0 mm 3 mps 748 mmHg 85%
14:00 +1°C° 0.1 mm 3 mps 748 mmHg 86%
15:00 0°C° 0.1 mm 3 mps 747 mmHg 87%
16:00 -1°C° 0.1 mm 4 mps 747 mmHg 87%
17:00 0°C° 0.3 mm 3 mps 747 mmHg 90%
18:00 0°C° 0.3 mm 3 mps 748 mmHg 92%
19:00 0°C° 0.3 mm 3 mps 748 mmHg 95%
20:00 0°C° 0.1 mm 3 mps 748 mmHg 92%
21:00 0°C° 0.1 mm 3 mps 748 mmHg 89%
22:00 -1°C° 0.1 mm 4 mps 749 mmHg 86%
23:00 -1°C° 0 mm 4 mps 749 mmHg 85%

26 January, Tuesday

Time Temperature Precipitation Wind Pressure Humidity
00:00 -1°C° 0 mm 4 mps 749 mmHg 84%
01:00 0°C° 0 mm 3 mps 750 mmHg 83%
02:00 0°C° 0.3 mm 3 mps 750 mmHg 87%
03:00 0°C° 0.3 mm 3 mps 750 mmHg 91%
04:00 -1°C° 0.3 mm 3 mps 750 mmHg 95%
05:00 0°C° 0.6 mm 3 mps 751 mmHg 93%
06:00 -1°C° 0.6 mm 4 mps 751 mmHg 91%
07:00 0°C° 0.6 mm 4 mps 751 mmHg 89%
08:00 0°C° 0.2 mm 4 mps 752 mmHg 89%
09:00 0°C° 0.2 mm 4 mps 752 mmHg 88%
10:00 0°C° 0.2 mm 4 mps 753 mmHg 87%
11:00 0°C° 0 mm 4 mps 753 mmHg 85%
12:00 +1°C° 0 mm 4 mps 753 mmHg 83%
13:00 +1°C° 0 mm 4 mps 754 mmHg 82%
14:00 +1°C° 0 mm 4 mps 753 mmHg 82%
15:00 +1°C° 0 mm 4 mps 753 mmHg 82%
16:00 +2°C° 0 mm 3 mps 753 mmHg 82%
17:00 +1°C° 0 mm 3 mps 753 mmHg 84%
18:00 +1°C° 0 mm 3 mps 753 mmHg 86%
19:00 +1°C° 0 mm 3 mps 753 mmHg 88%
20:00 +1°C° 0.1 mm 3 mps 752 mmHg 90%
21:00 0°C° 0.1 mm 4 mps 752 mmHg 92%
22:00 0°C° 0.1 mm 4 mps 751 mmHg 94%
23:00 0°C° 0.7 mm 5 mps 750 mmHg 94%

27 January, Wednesday

Time Temperature Precipitation Wind Pressure Humidity
00:00 0°C° 0.7 mm 5 mps 749 mmHg 95%
01:00 +1°C° 0.7 mm 6 mps 749 mmHg 95%
02:00 +1°C° 0.6 mm 6 mps 748 mmHg 94%
03:00 +2°C° 0.6 mm 5 mps 747 mmHg 92%
04:00 +3°C° 0.6 mm 5 mps 746 mmHg 91%
05:00 +3°C° 0.3 mm 5 mps 747 mmHg 90%
06:00 +4°C° 0.3 mm 4 mps 747 mmHg 90%
07:00 +4°C° 0.3 mm 4 mps 747 mmHg 89%
08:00 +4°C° 0.2 mm 4 mps 748 mmHg 87%
09:00 +5°C° 0.2 mm 5 mps 749 mmHg 85%
10:00 +5°C° 0.2 mm 5 mps 749 mmHg 83%
11:00 +5°C° 0 mm 5 mps 750 mmHg 81%
12:00 +4°C° 0 mm 6 mps 751 mmHg 79%
13:00 +5°C° 0 mm 6 mps 751 mmHg 77%
14:00 +4°C° 0 mm 6 mps 752 mmHg 77%
15:00 +5°C° 0 mm 5 mps 752 mmHg 76%
16:00 +5°C° 0 mm 5 mps 753 mmHg 76%
17:00 +5°C° 0 mm 5 mps 753 mmHg 79%
18:00 +4°C° 0 mm 4 mps 754 mmHg 81%
19:00 +4°C° 0 mm 3 mps 754 mmHg 84%
20:00 +4°C° 0 mm 3 mps 754 mmHg 86%
21:00 +4°C° 0 mm 3 mps 754 mmHg 88%
22:00 +4°C° 0 mm 3 mps 754 mmHg 90%
23:00 +4°C° 0 mm 3 mps 754 mmHg 90%
Show more